Regional Weather Roundup
Issued by NWS

Home | Current Version | Previous Version | Graphics & Text | Print | Product List | Glossary On
Versions: 1 2 3 4 5 6 7 8 9 10 11 12 13 14 15 16 17 18 19 20 21 22 23 24 25 26 27 28 29 30 31 32 33 34 35 36 37 38 39 40 41 42 43 44 45 46 47 48 49 50
000
ASUS43 KMPX 210410
RWRMN
WEATHER ROUNDUP FOR MINNESOTA
NATIONAL WEATHER SERVICE TWIN CITIES/CHANHASSEN MN
1000 PM CST MON NOV 20 2017


NOTE: "FAIR" INDICATES FEW OR NO CLOUDS BELOW 12,000 FEET WITH NO
SIGNIFICANT WEATHER AND/OR OBSTRUCTIONS TO VISIBILITY. N/A MEANS
CURRENT SKY AND/OR WEATHER CONDITIONS ARE NOT AVAILABLE.

MNZ060>063-068>070-210500-
   Twin Cities Metro

CITY           SKY/WX    TMP DP  RH WIND       PRES   REMARKS
TWIN CITIES    MOCLDY    43  28  55 W10       29.49R
ST PAUL        CLEAR     42  27  55 W10       29.50R
CRYSTAL        CLEAR     44  25  47 W13       29.48R
BLAINE         CLOUDY    45  28  53 W12G17    29.47R
LAKEVILLE      CLEAR     39  28  65 SW10G16   29.50R
EDEN PRAIRIE   CLEAR     44  26  49 W9        29.49R
SOUTH ST PAUL  CLEAR     45  26  49 W10       29.49R
LAKE ELMO      FAIR      43  28  56 W9G16     29.48R
$$
MNZ001>005-007-008-013>017-022>024-027-028-210500-
   Northwest Minnesota

CITY           SKY/WX    TMP DP  RH WIND       PRES   REMARKS
BEMIDJI        CLOUDY    29  21  73 W24G31    29.43R WCI  15
HALLOCK        CLOUDY    23  16  74 NW25G32   29.52R WCI   7
ROSEAU         FLURRIES  23  18  80 W20G28    29.41R WCI   8
WARROAD        CLOUDY    23  16  74 W25       29.39R WCI   7
THIEF RVR FALL CLOUDY    25  16  68 NW30G40   29.50R WCI   8
CROOKSTON      CLOUDY    25  16  68 NW33G43   29.55R WCI   7
FOSSTON        CLOUDY    25  16  68 W20G32    29.51R WCI  11
DETROIT LAKES  PTCLDY    32  27  80 NW24G39   29.54R WCI  19
MOORHEAD       CLOUDY    28  19  69 NW29G35   29.60R WCI  13
PARK RAPIDS    PTCLDY    32  23  69 NW30G43   29.45R WCI  18
MAHNOMEN       MOCLDY    28  20  71 NW24G36   29.53R WCI  13
$$
MNZ006-009>011-018-025>026-210500-
   North Central Minnesota

CITY           SKY/WX    TMP DP  RH WIND       PRES   REMARKS
BAUDETTE       CLOUDY    24  16  71 NW28G41   29.34R WCI   7
FLAG ISLAND    CLOUDY    23  16  74 W30G41    29.32R WCI   5
INTL FALLS       N/A     29  21  72 W22G31    29.27R WCI  15
WASKISH        CLOUDY    27  21  80 NW21G32   29.40R WCI  13
BIG FORK       CLOUDY    34  27  75 W12G29    29.33R WCI  25
LONGVILLE      CLOUDY    34  23  64 W24G36    29.40R WCI  21
GRAND RAPIDS   CLOUDY    37  29  72 NW18G26   29.34R
CRANE LAKE     CLOUDY    37  28  70 W10G18    29.21S
ORR            CLOUDY    36  27  69 W17G30    29.21R
COOK           CLOUDY    37  28  70 W25G31    29.24R
WALKER         MOCLDY    32  22  67 NW17G26   29.42R WCI  21
$$
MNZ012-019>021-037-210500-
   Northeast Minnesota

CITY           SKY/WX    TMP DP  RH WIND       PRES   REMARKS
DULUTH         CLOUDY    35  27  72 W21       29.28R WCI  24
ELY            CLOUDY    37  27  65 W14       29.19F
HIBBING        CLOUDY    37  29  72 W8G21     29.28R
EVELETH        CLOUDY    37  27  65 W12G28    29.26S
DULUTH HARBOR  CLOUDY    37  30  75 SW15      29.31R
TWO HARBORS    CLOUDY    37  30  75 W13G22    29.24R
SILVER BAY     CLOUDY    36  28  75 W8        29.20S
GRAND MARAIS     N/A     35  30  82 W9        29.19F WCI  28
G MARAIS ARPRT CLEAR     27  23  86 SW7       29.15F WCI  19
$$
MNZ029>031-032-039>041-046>048-054>057-064-210500-
   West Central Minnesota

CITY           SKY/WX    TMP DP  RH WIND       PRES   REMARKS
FERGUS FALLS   CLOUDY    30  21  69 NW28G37   29.57R WCI  16
WHEATON        PTCLDY    36  19  51 W21       29.63R
MORRIS         CLEAR     36  21  55 NW22G30   29.57R
ALEXANDRIA     CLOUDY    35  26  69 NW21G32   29.53R WCI  24
ELBOW LAKE     FAIR      33  23  67 NW17G28   29.57R WCI  22
WADENA         CLOUDY    34  27  75 NW20G28   29.48R WCI  22
GLENWOOD       CLOUDY    36  27  69 W28       29.54R
APPLETON       CLEAR     39  19  45 NW20G26   29.62R
BENSON         CLEAR     37  21  52 N18G26    29.60R
ORTONVILLE     CLEAR     37  21  52 MISG      29.63R
MADISON        CLEAR     41  25  52 NW15      29.63R
WILLMAR        FAIR      41  28  60 NW16G24   29.58R
$$
MNZ033>034-036-042>043-049>051-058-059-210500-
   Central Minnesota

CITY           SKY/WX    TMP DP  RH WIND       PRES   REMARKS
ST CLOUD       CLOUDY    42  30  62 W18G28    29.48R
SAUK CENTRE    FAIR      37  27  69 W14G23    29.52R
PAYNESVILLE    CLOUDY    39  31  72 W16G22    29.53R
AITKIN         CLOUDY    37  27  65 W18G25    29.37R
PINE RIVER     CLOUDY    34  23  64 NW15G25   29.47R WCI  24
BRAINERD       CLOUDY    38  27  64 W18G29    29.43R
STAPLES        CLOUDY    34  25  69 NW22G28   29.47R WCI  22
LONG PRAIRIE   FAIR      36  28  75 W13G26    29.49R
LITTLE FALLS   CLOUDY    37  25  60 W17G23    29.47R
LITCHFIELD     CLEAR     43  30  61 W14G21    29.54R
BUFFALO        CLOUDY    43  28  55 W15G21    29.52R
MAPLE LAKE     CLOUDY    44  31  61 W14G22    29.52R
HUTCHINSON     CLEAR     41  30  64 W15G22    29.55R
$$
MNZ037-044-045-052-053-210500-
   East Central Minnesota

CITY           SKY/WX    TMP DP  RH WIND       PRES   REMARKS
PRINCETON      CLOUDY    43  28  56 W14G20    29.46R
MORA           CLOUDY    37  28  70 W13       29.43R
CAMBRIDGE      CLOUDY    45  28  53 W9        29.45R
RUSH CITY      CLOUDY    40  28  62 W12G17    29.43R
MOOSE LAKE     CLOUDY    41  30  65 W12G21    29.35R
HINCKLEY       FAIR      36  30  80 W9        29.40R
CLOQUET        CLOUDY    37  27  65 W14       29.31R
MCGREGOR       CLOUDY    39  30  70 W13G20    29.36R
$$
MNZ071>073-080-081-089-090-097-098-210500-
   Southwest Minnesota

CITY           SKY/WX    TMP DP  RH WIND       PRES   REMARKS
MONTEVIDEO     CLEAR     39  27  60 N16G24    29.60R
GRANITE FALLS  CLEAR     41  30  65 NW16G25   29.62R
CANBY          CLEAR     40  27  59 W9G16     29.65R
MARSHALL       CLEAR     41  26  55 NW14      29.63R
REDWOOD FALLS  CLEAR     42  25  50 NW14      29.59R
OLIVIA         CLEAR     39  28  65 NW16      29.57R
PIPESTONE      CLEAR     39  21  48 N9        29.63R
WINDOM         CLEAR     36  19  51 W10       29.60R
WORTHINGTON    CLEAR     41  24  51 W14       29.62R
JACKSON        CLEAR     39  25  56 W12       29.60R
SLAYTON        CLEAR     38  26  61 NW10      29.63R
$$
MNZ065>067-074>077-082>085-091>093-210500-
   South Central Minnesota

CITY           SKY/WX    TMP DP  RH WIND       PRES   REMARKS
MANKATO        CLEAR     42  26  53 W14       29.56R
NEW ULM        CLEAR     37  25  60 CALM      29.57R
ST JAMES       CLEAR     41  27  56 W13       29.59R
FAIRMONT       CLEAR     40  26  57 W14       29.58R
GLENCOE        CLEAR     41  29  62 W13       29.54R
FARIBAULT      CLEAR     39  28  65 W9        29.54R
OWATONNA       PTCLDY    39  28  65 W13       29.54R
WASECA         CLEAR     34  28  80 W9        29.57R WCI  26
ALBERT LEA     MOCLDY    43  27  52 W9        29.55S
$$
MNZ078>079-086>088-094>096-210500-
   Southeast Minnesota

CITY           SKY/WX    TMP DP  RH WIND       PRES   REMARKS
ROCHESTER      PTCLDY    40  30  67 W12       29.53S
RED WING       PTCLDY    45  25  45 W10G16    29.49R
STANTON        CLEAR     42  28  58 W9        29.50S
DODGE CENTER   CLOUDY    37  28  70 SW9       29.53S
WINONA         CLEAR     46  30  53 W5G17     29.52S
AUSTIN         PTCLDY    43  28  56 W9        29.56R
PRESTON        CLEAR     42  28  56 SW14      29.55R
$$
ABBREVIATIONS USED IN REMARKS
   TC - TEMPERATURES IN CELSIUS
  WCI - WIND CHILL INDEX
   HX - HEAT INDEX
  VSB - VISIBILITY
$$




USA.gov is the U.S. government's official web portal to all federal, state and local government web resources and services.